Theta_e
307 306 306 307 307 307 307 307 307 306 305 295 293 297 299 293 298 307 309 312 309 297 290 293 295 294 297 301 302 301 302 302 302 303 303 302 302 300 301 303 300 300 300 299 299 298 295 297 298 299 300 299 302 304 305 306 304 303 297 301 302 320 291 286 287 290 292 297 300 305 305 304 302 299 299 298 294 293 290 286 289 287 287 284 281 282 287
306 306 306 306 307 307 307 307 307 306 305 297 296 292 292 293 295 304 311 312 308 298 291 290 291 294 300 302 302 304 303 303 302 302 303 301 300 299 300 302 303 301 303 301 300 301 291 298 300 296 299 300 305 305 306 305 303 304 303 300 304 292 291 290 284 280 282 286 292 295 299 300 295 296 296 299 298 297 294 293 290 287 287 285 281 282 283
306 306 306 306 306 307 307 307 306 306 305 301 297 297 294 297 301 301 304 310 310 300 296 294 291 293 295 297 297 300 302 303 305 304 303 304 300 301 300 303 304 302 303 301 302 303 299 294 298 300 301 301 304 306 305 306 304 305 311 323 305 297 293 289 287 283 279 279 281 285 290 292 295 298 300 300 298 295 294 291 286 283 288 289 284 283 292
305 305 306 306 306 307 307 306 306 306 305 303 298 296 301 298 294 296 299 302 303 302 301 299 297 294 295 295 295 300 298 302 304 305 304 304 304 302 303 303 304 301 301 298 298 300 302 298 296 298 298 298 303 306 305 306 306 318 319 317 304 295 292 287 283 280 280 282 287 292 296 294 294 298 298 299 298 296 293 290 285 285 288 288 288 292 297
305 305 306 306 306 307 307 306 306 306 305 304 299 300 299 300 294 290 292 297 299 299 297 299 298 296 297 290 297 298 298 300 302 306 301 304 303 302 302 302 299 298 298 296 297 299 298 298 300 299 299 299 302 305 303 303 313 319 311 314 297 291 289 293 289 290 291 294 294 297 299 296 297 297 298 298 297 296 293 289 289 291 291 286 292 299 298
305 305 305 306 306 306 307 306 306 305 305 305 301 302 299 294 296 299 298 296 289 292 292 299 299 300 299 295 299 297 298 298 297 301 305 304 304 300 300 298 301 299 299 297 292 294 293 292 296 298 299 299 300 301 303 303 309 310 304 307 299 292 288 295 295 295 296 296 298 299 298 299 300 299 297 296 297 297 295 292 294 291 286 287 295 298 297
304 305 305 306 306 306 306 306 305 305 304 304 301 301 300 296 296 299 302 295 293 295 297 303 301 299 300 294 299 296 297 297 300 300 299 300 300 300 290 296 298 299 300 298 295 294 289 289 293 295 296 298 297 295 298 301 302 304 301 303 296 296 292 294 295 294 293 296 297 300 299 297 298 299 298 298 296 295 295 295 295 294 293 292 297 296 297
304 305 305 305 306 306 307 306 305 304 303 302 303 301 300 296 293 297 297 296 298 297 298 299 298 297 301 296 298 299 297 297 300 303 300 295 298 303 298 297 298 299 300 296 296 297 296 297 295 297 297 296 296 295 296 297 301 302 299 302 301 298 288 299 291 291 292 294 297 298 297 297 297 297 299 299 297 298 297 296 297 299 297 298 297 297 296
304 304 305 305 306 306 306 306 305 304 301 303 302 301 302 302 298 295 293 290 290 299 298 298 296 292 294 294 296 300 299 298 300 301 302 299 298 300 299 300 299 299 299 298 299 301 299 299 301 300 298 294 296 296 296 300 298 298 298 299 300 298 291 292 287 289 287 292 295 295 294 296 295 295 297 298 297 294 294 293 297 294 295 295 296 295 295
304 304 305 305 305 306 306 305 305 303 302 301 297 299 299 301 302 299 293 286 300 297 296 294 294 291 295 297 298 298 299 300 301 297 301 303 303 302 302 300 299 295 298 298 299 301 302 303 304 303 303 303 301 300 301 302 300 297 296 298 298 294 291 291 285 287 282 289 293 292 290 289 290 289 294 298 297 297 297 297 299 299 301 297 293 295 298
303 304 305 305 305 306 306 305 305 304 298 295 295 297 297 299 300 299 293 290 290 295 296 294 293 299 299 301 301 301 300 300 300 294 291 301 303 304 303 301 298 294 295 302 305 304 304 304 304 304 303 303 302 301 302 303 302 301 299 296 293 294 293 291 288 289 283 289 290 289 288 280 282 292 298 300 298 297 296 296 298 299 298 295 297 299 304
303 304 305 305 305 306 306 305 305 304 302 295 295 294 295 299 296 293 288 287 290 292 296 295 296 298 299 300 301 299 300 300 300 300 299 299 302 303 300 298 297 291 300 304 303 302 302 303 301 301 300 302 307 306 305 304 304 303 301 300 296 294 288 287 284 288 286 286 286 287 278 280 289 296 300 301 301 301 298 298 299 299 300 302 303 304 306
303 304 304 305 305 306 306 305 305 304 303 297 294 297 298 300 299 295 292 291 288 293 295 296 299 299 300 300 299 300 301 301 301 302 301 301 301 301 304 301 299 301 304 303 302 299 297 295 293 294 296 295 299 301 303 303 302 303 301 300 298 291 286 286 285 284 285 283 280 279 279 287 293 297 300 303 303 301 300 298 300 299 300 303 303 304 305
303 304 304 305 305 305 305 305 305 305 304 301 293 294 296 299 297 293 290 287 289 292 296 296 295 298 298 299 300 299 299 300 299 301 300 302 301 301 303 304 305 305 303 302 298 297 293 287 282 284 289 290 290 294 298 301 301 302 302 301 300 295 291 287 287 287 285 282 280 285 288 291 296 297 299 299 297 298 293 289 293 299 300 304 304 303 304
303 303 304 305 305 305 305 305 305 305 304 303 294 293 295 296 297 295 294 291 286 291 293 293 296 298 299 298 299 295 294 294 296 299 299 301 301 304 305 306 305 305 303 301 295 291 289 283 283 279 282 283 282 285 291 294 297 300 300 299 298 297 298 289 290 287 285 282 281 283 278 278 285 291 299 301 303 303 301 297 294 299 302 305 305 303 303
303 304 304 305 305 305 305 305 305 305 304 303 294 294 295 297 298 298 294 291 290 292 295 298 303 300 298 297 299 297 295 292 292 291 292 294 299 301 304 304 304 305 302 296 291 286 285 288 281 278 283 284 287 287 285 292 292 297 297 299 299 297 294 292 289 285 284 283 283 282 280 280 286 293 298 301 303 305 302 295 291 297 304 306 305 303 303
303 303 304 305 305 305 305 305 305 305 305 303 295 296 299 299 300 297 296 295 293 289 296 303 302 299 295 296 295 295 295 292 294 292 289 293 298 299 301 304 302 303 299 293 290 283 283 284 282 282 283 289 288 287 288 286 286 287 296 297 294 293 290 288 287 283 283 278 282 283 284 286 296 297 299 304 306 306 298 287 286 295 302 306 304 304 303
303 303 304 305 305 305 305 304 305 305 304 303 298 296 296 298 299 300 296 292 291 292 295 303 300 295 295 294 295 298 297 295 295 292 292 294 296 298 300 300 299 300 302 292 287 282 281 280 285 282 284 291 294 292 283 288 284 287 289 288 288 286 284 285 287 280 283 284 281 284 286 293 297 301 304 306 307 298 287 284 289 298 302 304 305 303 304
303 304 304 304 305 305 305 305 305 304 304 303 295 296 297 298 300 299 297 295 294 292 297 302 304 300 302 304 301 301 299 298 295 290 285 289 296 300 301 301 300 293 295 287 286 284 284 284 288 284 285 287 290 287 289 286 285 287 289 286 286 286 286 284 283 282 284 285 286 285 285 291 300 306 304 304 297 288 285 293 305 304 303 303 305 305 306
303 304 303 304 305 305 305 305 305 304 304 304 297 295 296 297 301 302 300 294 294 293 298 301 303 301 303 301 298 298 298 294 292 289 287 291 296 295 290 288 292 293 289 286 284 286 284 285 286 288 283 283 286 293 285 288 291 291 289 291 287 289 287 286 285 284 284 278 278 281 283 294 304 307 303 302 291 289 299 306 308 306 303 305 305 305 305
303 303 304 304 304 304 304 304 304 304 304 304 301 294 297 299 297 299 299 295 292 291 293 298 302 302 303 302 302 304 300 298 295 296 294 294 297 287 285 285 290 293 289 282 285 285 282 283 283 287 290 290 289 291 285 283 286 296 297 292 292 292 285 278 281 285 284 280 282 284 290 301 309 307 294 298 302 308 310 308 304 306 307 306 304 303 304
303 303 303 304 304 305 304 304 304 304 304 304 300 293 297 298 295 299 302 298 293 287 292 298 301 302 304 305 304 305 305 304 302 303 299 297 297 297 294 293 293 293 295 289 288 289 290 289 288 287 287 288 286 286 286 281 283 288 293 295 288 297 297 290 291 291 288 286 286 298 307 309 310 310 309 309 310 310 311 309 306 305 305 307 305 304 306
303 303 304 304 304 304 304 304 304 304 303 304 298 290 290 290 292 298 297 299 297 298 299 298 300 303 306 308 310 308 307 308 307 303 302 297 292 296 297 296 298 299 298 297 295 289 289 287 287 286 285 288 288 286 286 285 284 289 289 295 297 304 304 303 300 298 303 305 306 308 308 308 309 311 311 310 308 308 310 309 307 307 307 307 305 306 306
303 303 303 304 304 304 304 304 304 304 303 303 301 295 293 290 293 296 297 295 293 287 290 294 296 295 300 306 308 311 310 309 309 307 306 304 292 289 294 300 301 299 297 299 295 297 290 289 291 291 286 289 288 281 285 285 290 291 289 291 296 299 302 300 299 302 296 290 303 304 304 306 306 307 308 309 309 309 310 310 311 310 310 309 309 308 307
303 303 304 303 304 304 304 304 304 304 303 303 301 299 297 292 293 294 296 295 289 285 287 285 291 301 306 307 308 306 307 309 314 309 306 306 301 298 299 303 303 302 299 298 295 293 287 292 292 287 282 291 293 287 292 284 285 291 287 292 296 297 307 298 298 297 296 296 302 304 305 305 306 305 305 306 309 311 311 311 312 311 311 310 309 309 307
302 303 303 303 303 304 304 304 304 303 303 304 303 296 294 292 292 294 297 297 292 289 291 289 297 304 304 303 304 305 308 307 309 309 307 306 305 304 304 302 301 300 298 297 297 292 285 286 286 288 289 291 296 288 288 292 295 299 294 295 301 303 305 292 300 298 301 305 306 306 306 304 304 306 307 308 310 310 310 311 310 310 308 308 309 308 306
302 303 303 303 303 304 304 304 304 303 303 303 301 295 296 297 298 295 297 296 293 287 287 286 291 297 301 300 303 305 308 305 308 308 307 306 306 305 304 302 301 298 297 295 291 287 283 284 287 292 291 293 292 293 296 299 298 297 295 302 305 301 297 301 297 291 289 293 299 304 294 294 301 303 305 306 309 310 309 309 309 308 306 306 305 305 305
302 303 303 303 303 303 303 304 303 303 304 304 299 297 296 294 295 296 295 298 297 288 286 286 290 296 299 297 303 305 305 306 308 306 305 305 306 305 303 300 298 295 292 288 290 288 283 287 294 290 291 293 295 295 300 299 298 294 297 300 304 300 303 299 290 289 291 301 304 304 303 302 302 304 304 305 308 308 307 307 307 307 307 306 304 302 302
303 302 302 303 303 303 303 303 303 304 304 301 295 296 297 297 298 299 300 301 296 288 286 288 293 294 295 298 304 302 303 307 306 306 305 304 304 304 303 301 298 293 292 289 285 284 285 290 293 294 297 301 297 292 292 289 288 290 297 304 305 306 307 304 302 302 302 305 304 305 303 300 302 304 304 305 306 307 305 304 305 305 305 305 303 302 301
303 302 303 303 303 303 303 303 303 304 304 297 293 288 288 298 298 298 300 303 297 294 291 287 289 294 297 299 300 300 305 307 306 305 304 304 303 302 301 300 297 297 293 290 286 290 288 287 290 295 302 306 297 294 292 292 291 296 304 305 307 307 307 307 307 303 301 306 305 305 304 304 305 305 306 306 307 306 303 302 303 303 302 302 301 300 301
303 302 302 302 303 303 303 303 304 304 303 296 296 289 288 292 299 301 301 299 299 297 287 288 289 292 295 300 300 301 304 304 303 304 303 303 302 302 302 300 298 297 289 286 286 288 288 293 290 295 298 300 291 291 293 292 290 296 302 305 305 305 305 305 307 306 306 304 305 305 304 304 305 305 305 304 305 305 305 305 307 308 304 302 301 300 300
303 302 302 303 303 303 303 303 303 303 301 297 290 295 294 297 300 299 302 301 298 298 294 289 288 287 286 291 298 300 302 303 302 300 299 300 302 301 302 300 299 299 292 288 288 287 290 291 293 294 295 299 294 292 294 293 290 295 303 305 306 306 305 304 305 306 306 306 302 299 298 301 304 303 301 303 302 302 304 302 303 305 307 301 300 299 299
303 302 303 302 302 303 303 303 304 303 299 301 304 305 305 305 305 304 303 297 295 288 286 285 287 285 285 293 297 300 301 302 302 299 299 299 301 299 298 297 295 296 304 291 289 291 291 289 288 296 298 299 293 292 293 293 295 300 303 305 306 306 306 307 306 304 304 304 305 296 295 297 300 302 301 299 299 299 300 300 300 301 302 301 301 300 300
303 303 302 302 302 303 303 304 304 304 302 296 296 299 300 306 305 306 300 294 292 291 290 288 287 286 287 292 296 297 299 296 295 293 293 299 298 296 295 293 293 290 296 293 291 291 292 289 289 291 290 294 293 291 288 294 299 300 302 304 304 304 304 303 301 302 303 303 302 302 303 302 300 299 299 299 299 299 300 299 301 300 299 298 297 297 297
304 303 303 302 303 303 304 303 300 296 288 290 293 298 301 307 306 306 301 296 296 290 288 289 283 284 285 284 286 292 297 300 297 294 295 296 297 299 294 290 289 288 293 294 286 289 287 291 293 285 288 289 287 287 292 296 301 302 303 303 302 299 300 298 299 299 297 297 298 297 298 299 297 297 297 298 298 298 298 297 298 299 297 296 296 296 296
303 303 302 303 303 303 300 300 296 295 296 296 300 304 306 307 305 299 298 300 304 292 287 290 284 282 282 281 284 292 297 292 291 292 293 294 296 293 290 288 289 292 293 290 289 288 292 296 288 287 285 286 287 289 294 298 302 301 301 301 301 300 300 300 300 297 296 297 297 297 297 297 298 297 297 297 297 297 297 297 296 297 296 297 297 297 298
303 302 304 303 300 298 291 291 295 296 296 299 303 305 306 306 304 301 300 300 302 297 292 289 285 285 284 286 286 287 293 289 288 287 285 290 292 287 287 286 286 288 286 284 286 289 295 292 286 284 284 286 292 292 293 299 301 300 299 301 303 302 301 298 298 298 297 296 296 295 296 296 296 296 296 296 297 297 297 297 296 296 296 296 296 296 295
303 303 296 293 292 287 290 293 298 301 307 308 307 299 297 295 289 288 289 288 292 301 288 287 286 286 288 288 288 295 290 287 286 285 286 284 288 287 284 286 286 287 286 282 285 296 287 284 281 286 289 289 290 293 293 295 299 299 298 298 297 299 299 299 300 299 296 295 295 294 296 295 295 294 296 296 297 297 296 297 297 297 296 296 295 295 295
301 298 296 293 288 285 289 297 302 307 304 302 297 292 290 285 286 289 289 286 286 288 290 289 285 287 287 287 289 291 293 289 283 285 285 289 288 286 286 285 286 284 282 282 290 293 286 283 278 281 289 290 292 298 296 295 295 298 298 298 298 298 300 299 300 300 298 297 297 297 297 297 296 294 295 295 295 295 295 295 295 295 295 294 294 294 294
293 292 290 289 288 293 296 300 304 302 295 289 287 287 288 285 287 286 282 286 286 283 289 289 287 287 290 291 288 292 292 289 284 282 284 288 289 286 285 281 283 284 283 281 287 286 284 284 279 281 286 287 291 293 294 297 298 297 297 297 297 297 298 300 299 298 297 296 297 296 297 297 298 297 296 295 295 294 293 294 294 294 294 294 296 294 293
291 292 291 289 292 293 295 297 296 291 288 288 286 283 283 285 284 284 282 278 281 283 289 289 290 292 291 289 289 290 292 295 289 286 286 285 287 286 283 284 284 281 277 278 283 281 279 279 278 280 286 286 288 294 296 296 298 297 297 297 297 297 299 299 299 300 300 299 297 296 296 297 297 296 296 295 295 294 293 293 293 293 293 293 293 292 291
292 293 294 295 295 295 295 292 287 288 285 286 284 281 280 281 281 280 281 282 281 281 287 289 290 287 289 293 290 290 292 294 289 285 283 284 287 284 282 279 280 279 280 281 283 277 280 281 280 280 284 290 292 292 296 296 296 296 296 297 298 298 299 299 299 298 299 298 297 295 295 295 295 295 295 295 294 294 294 294 293 292 292 291 292 291 292
303 302 297 291 291 289 287 289 286 283 283 282 278 279 278 279 280 281 279 281 282 286 287 291 290 290 293 294 292 294 292 294 294 287 282 284 285 279 279 278 280 280 283 282 279 278 279 277 277 284 289 293 294 294 295 296 295 295 294 295 295 297 298 298 297 296 296 296 296 295 295 294 294 294 296 295 294 293 292 292 293 292 291 291 291 291 291
296 298 292 284 289 289 288 285 286 286 281 278 279 278 277 277 278 277 278 280 281 284 285 288 288 290 290 289 291 290 291 292 287 281 281 280 281 279 279 280 281 283 284 278 278 283 281 275 284 285 288 292 295 294 296 297 296 296 295 295 295 296 297 296 296 296 295 295 295 295 294 294 294 294 294 293 294 293 291 290 291 291 289 290 290 290 289
290 287 284 285 283 285 285 281 283 281 280 280 280 277 275 273 276 276 278 281 284 288 287 287 288 290 289 291 289 289 288 288 286 285 285 281 279 279 279 281 278 274 280 279 274 278 280 283 285 286 288 293 295 295 296 297 296 297 295 294 294 295 296 295 295 294 294 294 294 294 293 293 293 292 292 292 291 293 292 292 290 290 289 290 290 290 289
287 285 282 282 281 282 281 279 279 281 280 279 279 279 277 276 277 279 281 283 284 285 286 288 289 290 288 289 288 288 282 282 283 282 279 279 280 281 281 281 278 277 275 273 275 277 279 280 285 291 293 296 296 297 298 296 296 295 296 294 293 294 294 294 294 294 293 293 292 293 292 291 292 292 291 291 291 291 290 291 290 290 289 290 290 291 289
289 287 281 281 281 281 281 280 280 280 280 281 281 281 280 280 281 283 284 283 285 285 288 287 289 289 290 291 287 285 281 279 282 282 282 284 281 282 280 281 280 274 276 276 274 274 277 280 281 288 292 295 297 298 297 295 295 294 295 294 293 292 293 293 293 292 292 292 291 291 290 290 289 289 289 290 290 290 290 289 289 289 291 292 290 289 289
288 286 284 282 280 281 282 282 281 283 283 284 283 281 282 283 285 286 285 284 286 287 288 289 289 290 289 288 285 283 281 281 282 282 281 282 281 277 276 275 273 271 273 276 275 276 277 279 284 288 293 298 299 298 296 295 294 293 293 293 292 292 292 292 292 291 291 291 291 290 289 288 289 289 290 290 289 290 290 289 289 289 289 289 289 289 289
287 283 283 279 280 280 281 282 284 285 285 281 281 283 283 284 283 284 285 284 286 288 288 287 286 287 287 282 281 285 285 283 282 282 281 279 279 278 276 274 273 277 278 278 276 277 283 284 285 293 296 298 298 298 296 295 294 293 293 293 292 292 292 292 292 292 291 291 290 290 290 289 288 288 287 289 290 289 289 289 290 290 289 290 290 289 289
289 287 286 283 282 282 283 283 284 283 280 281 283 285 283 283 283 286 286 286 285 287 288 289 287 284 284 282 282 279 283 280 280 280 278 278 275 275 274 274 272 277 279 278 278 280 281 283 292 295 297 298 297 296 295 294 293 294 293 293 292 292 292 292 291 291 291 291 291 291 290 289 288 288 289 290 289 288 289 289 289 289 289 288 289 289 289
288 288 285 284 284 283 283 281 282 279 280 283 283 283 283 284 283 286 287 287 287 287 287 286 284 282 285 281 281 281 283 282 282 282 279 278 277 276 278 277 277 278 279 281 283 282 283 288 295 296 295 296 295 295 295 294 294 293 293 292 292 291 291 291 291 291 290 291 290 287 289 290 290 289 288 289 289 290 289 289 288 288 289 288 289 289 288
284 285 287 285 286 283 283 284 282 280 283 285 283 283 284 286 285 286 287 289 288 287 284 282 283 282 280 281 280 282 284 279 278 279 280 278 276 278 275 276 278 281 283 283 283 284 286 291 294 297 297 296 295 294 294 294 294 293 292 292 291 291 291 291 291 291 290 289 290 290 290 289 288 287 288 289 288 289 289 289 288 288 288 289 288 288 289
Wind_Speed
9 11 12 13 14 16 17 18 18 17 20 6 4 0 3 3 1 3 3 3 3 4 2 1 3 1 3 4 3 3 2 1 2 3 3 2 2 2 2 1 0 1 0 0 0 1 0 2 0 1 1 2 6 7 6 6 4 3 2 2 0 4 3 2 3 6 7 3 1 6 3 2 1 1 2 2 1 2 2 2 5 5 1 2 2 2 2
8 10 12 14 14 16 17 17 17 15 12 1 3 2 1 1 1 2 2 3 2 4 1 2 5 3 6 1 4 3 2 2 4 2 3 1 2 1 0 2 0 0 1 1 0 1 0 1 0 2 0 2 6 5 4 5 2 1 1 1 1 1 1 2 1 3 5 3 3 2 2 3 2 2 3 1 1 4 3 6 1 6 2 3 4 3 2
8 10 11 13 14 15 16 16 16 15 14 1 1 0 2 1 1 1 6 5 2 1 3 2 0 2 3 3 5 6 2 2 1 0 2 1 1 1 1 1 1 0 0 0 0 0 1 1 1 0 1 2 3 6 8 5 1 3 5 4 1 2 1 1 0 0 1 2 3 3 5 3 4 1 3 2 4 6 4 2 0 3 1 1 3 2 4
7 9 11 13 14 14 15 15 16 16 15 1 2 1 1 0 1 4 3 6 3 3 1 2 1 1 2 2 3 0 2 2 4 1 0 2 0 1 1 1 2 2 1 1 2 1 1 1 1 1 1 2 3 2 10 3 3 11 6 4 2 2 1 3 2 2 3 2 2 3 2 3 4 8 3 3 1 2 4 4 3 2 5 1 4 5 5
7 9 11 12 13 14 15 15 16 16 15 4 2 1 1 0 1 0 0 4 5 1 3 2 1 1 2 0 1 1 1 2 2 2 0 2 1 1 2 0 0 1 2 0 0 0 2 2 0 1 1 2 3 9 5 5 6 14 6 6 4 3 2 1 3 2 2 2 3 4 1 2 3 5 6 4 1 0 2 2 1 5 8 1 2 6 8
6 8 11 12 13 14 14 14 16 16 12 5 1 0 2 1 1 1 1 2 1 2 1 1 1 0 1 3 0 1 1 2 0 3 1 1 2 1 1 4 1 2 2 2 0 3 2 2 1 3 1 2 5 7 4 1 6 8 4 3 3 2 1 1 0 1 1 2 1 1 2 0 1 3 3 4 4 0 1 1 2 3 2 4 8 7 7
5 8 10 11 12 13 13 14 14 14 9 0 0 1 1 1 1 1 1 0 3 2 1 0 0 1 4 1 0 1 0 1 1 1 2 2 2 2 0 2 3 2 1 1 0 0 2 2 1 1 2 1 3 4 5 1 4 7 5 5 1 2 0 0 0 1 3 4 4 4 4 2 2 3 5 4 5 2 2 4 2 1 0 2 12 6 4
4 7 9 11 12 13 14 15 15 14 6 0 1 1 1 1 1 1 2 3 1 1 1 1 1 1 1 2 2 1 2 1 1 0 1 1 1 1 0 2 3 1 2 2 1 2 3 2 1 1 1 4 1 2 4 4 4 5 4 2 1 3 3 2 0 1 2 4 4 5 6 1 1 3 5 7 5 6 5 3 3 8 8 7 8 8 5
4 6 8 10 11 13 14 16 16 15 2 0 1 0 0 0 0 1 3 0 0 0 1 0 0 0 1 1 2 1 2 1 1 1 2 1 1 0 1 1 1 1 1 2 2 3 6 5 7 6 4 2 4 1 4 2 5 6 4 3 4 3 2 2 2 1 3 3 7 5 4 2 2 3 8 10 7 4 2 1 1 2 5 4 7 6 4
4 5 7 9 11 12 14 15 16 16 6 2 1 1 1 0 1 1 3 2 1 0 1 1 2 0 2 2 1 1 1 2 0 0 2 1 2 2 1 1 0 2 0 2 2 3 5 7 8 7 7 4 3 3 2 1 0 3 2 0 2 1 1 1 1 0 2 4 2 4 3 3 2 3 4 5 4 1 1 0 1 1 8 12 9 7 3
3 5 7 9 10 11 13 14 15 17 6 2 1 0 0 1 2 2 2 1 1 1 1 0 2 1 0 2 1 0 1 1 1 3 2 2 2 0 1 1 0 1 2 1 1 3 5 4 3 0 1 0 3 3 2 4 1 4 2 1 0 1 1 0 0 0 1 4 6 1 2 2 2 2 1 2 2 2 2 1 1 2 1 1 2 3 7
3 4 6 8 9 10 12 13 13 14 9 0 0 2 2 1 3 4 3 2 1 1 0 1 1 2 1 2 1 0 1 2 0 1 0 0 1 0 4 3 2 1 2 2 5 5 2 1 3 2 4 6 4 5 6 4 2 1 1 1 0 1 2 1 0 0 1 3 3 2 1 4 3 4 3 2 3 1 4 3 1 2 2 7 7 9 9
1 3 5 7 8 10 11 12 13 12 10 1 1 1 0 0 1 2 4 3 1 1 1 1 0 2 3 3 1 0 2 2 1 1 0 0 1 3 0 0 0 4 4 7 4 4 3 3 3 0 2 4 1 5 9 7 3 4 3 1 1 1 2 2 2 2 1 2 3 1 2 3 3 5 3 2 1 1 3 3 1 1 3 6 8 7 7
1 2 4 6 7 9 10 11 12 12 12 6 1 0 0 0 1 2 1 2 1 2 1 3 3 2 2 1 0 2 1 2 3 1 1 0 0 1 2 1 2 4 3 2 6 3 2 4 2 5 3 6 2 2 3 1 3 6 6 6 1 5 3 3 1 1 1 0 1 5 3 4 1 1 1 1 1 0 0 1 3 2 3 6 9 6 7
2 1 3 5 7 8 9 10 11 13 13 7 2 0 0 0 1 1 2 2 1 1 1 3 1 2 1 2 0 2 2 2 3 1 2 1 0 1 1 2 3 5 0 1 3 6 2 2 1 3 3 3 0 1 3 1 4 2 3 2 4 2 1 2 2 1 3 2 3 5 4 2 3 3 3 1 1 2 2 2 3 1 2 4 10 10 10
3 1 2 4 6 7 9 9 11 12 13 9 3 1 2 2 1 2 3 3 5 1 2 8 1 1 1 0 0 1 1 1 0 1 3 4 2 6 2 2 3 2 4 7 3 4 1 1 2 2 0 0 1 0 1 3 2 2 3 4 4 5 7 5 2 1 1 2 1 3 3 3 2 2 3 4 2 2 1 2 4 4 8 7 9 12 10
4 2 1 3 5 7 8 9 9 11 12 10 2 1 2 2 1 1 2 2 2 2 1 2 3 2 1 0 1 2 1 1 0 0 1 2 2 3 8 5 2 5 4 5 6 2 3 4 2 1 2 1 1 1 1 1 2 3 7 6 9 7 5 5 2 2 0 3 2 2 4 1 2 3 5 4 2 0 2 2 4 4 2 7 8 12 12
4 1 2 3 4 6 8 8 9 9 11 10 1 1 0 0 1 1 2 2 2 2 2 3 2 1 1 2 2 0 1 1 2 1 1 2 2 2 3 4 6 3 2 3 1 5 2 1 1 0 0 1 0 1 0 0 1 1 2 1 3 4 3 5 0 1 0 2 1 2 2 1 3 4 6 6 2 2 3 4 2 5 4 2 5 7 6
4 3 1 2 4 6 7 9 10 11 12 10 1 1 1 1 1 1 4 2 2 1 1 3 0 1 0 1 1 1 0 0 1 1 1 3 1 1 0 0 1 2 7 3 4 2 1 0 0 1 0 2 2 0 0 1 1 1 1 2 2 2 0 1 1 2 0 1 1 4 3 3 3 5 4 4 1 0 2 3 3 6 3 2 6 9 8
6 3 1 2 3 5 7 9 10 11 12 12 3 1 1 1 1 0 1 1 1 1 4 1 1 2 0 1 1 1 1 3 1 4 3 1 3 3 2 2 3 2 2 3 2 1 1 0 1 0 0 1 1 1 1 1 0 0 0 0 1 1 1 1 0 0 1 3 1 2 1 0 1 8 4 2 1 2 3 5 4 3 2 5 6 6 7
5 3 1 1 2 5 6 8 10 10 11 13 5 1 1 1 2 2 1 2 2 1 3 2 0 3 1 2 3 2 2 1 1 2 3 3 1 2 2 1 3 1 1 1 1 0 1 0 1 0 1 0 1 0 0 0 2 0 0 0 1 1 2 2 2 3 0 0 1 1 2 5 2 3 1 1 1 2 4 1 0 2 5 7 9 9 10
6 3 2 1 2 4 6 8 9 10 11 13 7 1 1 1 1 3 3 0 2 3 3 2 1 4 7 6 7 6 6 4 5 2 2 1 1 0 1 2 1 1 1 3 2 1 1 0 1 1 0 0 2 1 0 1 0 2 2 0 0 2 0 3 0 2 1 1 2 3 4 4 3 2 3 4 5 3 4 2 1 4 3 4 9 10 10
6 4 3 1 2 4 5 7 8 10 11 12 8 3 1 2 4 3 2 0 2 2 2 2 2 4 3 6 7 8 8 3 1 1 3 3 0 0 1 1 1 1 1 0 1 3 1 4 1 3 2 0 2 1 2 1 1 1 1 2 2 1 1 1 1 2 1 1 0 4 2 4 4 3 3 3 1 2 3 5 6 3 4 5 10 9 10
6 4 3 1 2 3 5 7 8 9 10 9 5 2 1 1 3 4 2 4 3 2 3 1 1 2 1 1 0 1 1 2 6 4 2 3 1 3 1 1 1 1 1 0 1 1 2 2 0 1 1 1 2 1 1 1 0 2 1 2 2 2 1 1 1 2 1 2 3 6 6 6 8 7 5 4 3 4 4 8 8 8 6 8 9 9 11
6 5 4 2 2 3 5 6 7 8 8 9 5 1 0 1 0 2 1 1 1 1 2 3 3 5 1 3 2 0 5 4 3 6 4 3 4 2 0 0 0 0 1 1 1 6 4 1 0 1 2 2 2 0 1 2 2 2 2 1 2 2 1 2 1 1 1 2 4 5 4 7 7 5 6 6 6 8 9 8 8 11 10 9 9 8 9
7 6 4 3 1 3 4 5 7 8 8 9 7 2 1 1 0 2 0 3 3 3 1 1 1 1 3 2 1 0 1 2 5 5 4 4 3 2 8 2 4 4 5 2 5 6 3 4 3 1 3 0 1 2 1 1 2 1 2 1 1 3 2 0 3 1 1 3 3 1 0 8 10 9 7 5 5 6 9 10 12 12 11 9 7 6 7
7 6 5 3 2 3 4 6 7 8 9 9 5 1 2 3 2 3 1 2 3 1 2 2 4 6 3 3 3 3 2 4 6 7 6 5 6 6 6 6 7 4 6 5 4 5 4 3 3 2 1 0 1 1 2 1 1 2 1 1 1 1 0 1 1 3 2 2 4 4 1 2 7 9 8 7 5 7 9 10 11 11 11 9 10 7 4
7 6 5 3 3 2 4 6 7 9 10 10 4 1 2 2 2 4 2 1 1 1 2 1 1 2 2 2 2 3 2 3 6 10 9 8 8 8 8 6 5 4 3 3 3 5 3 4 1 1 0 2 2 1 1 0 1 2 1 2 2 3 1 1 2 4 2 2 5 6 7 5 4 5 6 6 4 6 9 9 9 8 7 9 11 10 6
7 6 5 4 4 3 4 5 8 8 11 9 1 2 1 3 3 3 3 1 3 4 1 3 3 2 2 3 4 5 6 3 7 11 10 7 8 9 9 7 6 5 5 6 4 3 3 1 1 0 0 2 2 1 2 3 2 1 3 5 4 2 2 2 6 9 6 3 5 5 4 5 4 7 8 8 5 7 10 8 7 8 8 7 8 8 9
7 6 6 5 4 3 3 5 7 8 10 4 3 3 2 0 0 2 4 3 3 2 0 0 4 1 2 2 3 2 3 5 8 11 11 7 8 6 3 6 4 3 4 2 2 2 1 2 1 2 1 1 2 2 4 1 1 1 6 7 5 4 6 5 2 4 7 3 4 7 9 7 6 6 6 6 7 6 7 6 6 8 6 6 8 5 5
7 6 6 4 4 3 4 5 6 7 7 3 2 2 2 0 1 0 4 3 1 1 2 0 1 2 3 0 1 6 4 5 8 10 7 5 5 4 2 4 2 1 3 2 4 1 1 4 1 1 1 1 3 2 1 2 1 4 8 6 5 6 7 8 6 7 8 6 6 8 11 9 5 7 9 8 7 5 6 4 4 6 6 6 6 6 5
7 6 4 4 4 4 5 6 6 6 3 1 2 2 1 1 0 1 0 2 0 0 1 1 1 2 1 3 1 1 2 3 3 3 3 2 4 4 6 5 2 2 4 4 2 1 1 1 1 2 3 1 3 3 2 3 5 4 2 5 5 4 4 5 6 6 6 6 9 11 10 7 5 8 3 5 6 6 7 6 5 6 8 7 5 5 4
6 5 4 3 4 5 6 7 7 5 3 6 12 15 15 15 14 9 1 1 1 2 3 3 2 1 1 0 2 2 1 2 5 2 2 2 2 2 2 4 2 3 1 5 3 1 1 1 1 5 2 2 3 2 3 6 4 2 1 3 4 3 4 4 4 5 6 2 1 7 8 4 4 4 4 3 5 4 5 7 5 6 7 8 7 6 6
5 3 3 3 5 6 7 8 9 10 6 3 1 1 1 4 7 8 4 2 2 1 2 2 1 2 1 3 4 3 1 3 1 2 3 2 1 3 0 2 4 3 5 3 1 0 1 3 4 1 3 5 3 4 3 1 1 3 3 2 2 3 3 4 2 1 3 5 5 4 4 4 3 4 6 5 4 3 4 4 7 9 7 8 6 4 3
4 3 3 3 5 5 8 7 3 2 1 2 3 4 3 1 7 11 8 2 1 3 3 1 2 4 2 2 2 2 1 4 1 1 4 1 1 2 1 2 3 5 2 2 3 2 1 1 1 4 2 3 3 3 0 1 1 1 1 1 2 3 3 3 2 2 5 4 6 5 4 4 6 4 5 4 4 4 7 5 4 8 8 5 5 4 4
4 2 2 4 5 5 1 1 1 0 1 1 1 3 4 9 10 6 1 1 1 3 2 0 1 2 5 5 3 1 1 3 1 1 0 1 1 3 3 2 3 0 0 3 1 1 1 1 3 2 3 4 1 1 2 3 3 3 2 2 1 2 1 1 1 3 5 5 6 4 6 6 7 5 5 4 4 4 5 6 6 6 7 6 4 3 4
2 2 3 4 2 0 1 1 1 0 0 1 0 5 7 6 2 1 2 1 1 2 1 1 2 3 3 3 1 3 3 4 2 2 3 2 3 1 2 2 1 1 1 3 3 3 1 1 4 3 3 2 1 2 5 5 5 5 3 4 3 2 1 1 2 5 5 6 7 6 5 5 4 4 5 4 4 4 6 5 3 5 6 5 4 6 4
2 2 1 2 1 1 1 1 1 3 2 5 3 2 3 4 1 1 2 2 2 1 2 2 0 1 1 2 3 2 3 0 2 3 0 1 3 0 0 3 1 1 1 1 2 1 2 5 3 2 0 3 3 4 4 5 7 5 4 2 2 2 5 7 6 7 5 3 3 3 4 4 4 3 5 4 5 6 4 4 5 5 6 5 5 6 7
3 1 1 1 2 1 2 1 3 4 4 1 1 1 0 1 1 1 0 1 1 1 1 1 1 1 2 2 2 2 2 5 2 1 3 2 1 0 1 2 1 3 1 2 1 1 1 2 3 2 1 3 3 1 0 3 3 5 5 5 3 5 7 6 7 11 10 8 9 8 8 8 8 4 4 7 6 5 4 5 6 6 7 6 6 6 8
1 1 1 1 1 1 3 4 7 2 1 0 2 2 0 1 2 0 1 1 1 1 0 1 3 3 4 1 3 1 0 2 3 2 3 0 0 2 1 2 1 2 1 0 2 3 4 1 1 2 1 2 1 2 1 1 2 1 1 2 1 4 4 5 3 1 3 3 4 4 4 5 7 10 8 8 9 9 6 6 5 5 6 6 5 7 7
1 1 1 1 1 2 3 4 3 2 1 1 1 1 1 1 1 0 1 2 0 1 1 1 1 0 0 1 0 1 2 2 1 3 4 3 1 3 2 1 1 1 0 0 1 2 2 2 1 2 4 4 3 0 1 2 1 1 1 1 3 4 6 6 4 4 8 9 7 7 6 7 9 8 8 8 9 8 7 6 6 5 6 7 8 6 4
2 1 1 1 0 1 2 2 1 1 1 0 2 0 0 1 0 1 1 3 2 1 1 2 1 2 2 6 5 3 1 0 2 2 2 2 1 1 1 0 1 2 1 2 1 3 2 1 0 2 5 6 5 2 1 3 1 2 2 2 3 5 7 8 8 4 4 11 8 8 6 6 7 7 8 9 9 8 8 7 6 5 6 4 5 5 5
1 2 3 2 2 1 1 1 1 1 1 0 2 1 1 1 1 2 1 2 1 1 1 1 0 1 0 1 1 0 1 0 0 1 2 2 0 2 2 1 1 1 1 1 2 2 1 1 3 7 6 6 5 3 2 2 3 4 4 4 4 4 7 9 10 9 5 8 10 8 7 7 6 5 6 8 8 6 4 4 6 5 4 5 4 4 5
1 1 1 2 1 0 1 1 1 1 1 0 2 2 1 0 1 1 0 2 1 1 1 3 3 5 3 2 2 0 0 1 3 3 3 0 1 0 1 1 1 1 1 2 1 1 2 2 7 4 5 4 3 3 5 5 5 6 6 5 5 7 9 10 11 12 8 6 7 6 6 7 7 5 4 5 9 9 5 4 3 4 4 4 5 5 4
1 2 1 1 1 1 1 1 1 2 2 2 2 2 3 3 4 3 2 2 1 1 0 1 3 3 3 1 1 1 1 1 1 3 1 1 2 1 2 1 1 2 1 1 0 1 1 2 3 2 3 5 6 4 4 5 5 9 9 6 5 7 11 12 9 9 8 8 8 8 8 6 7 5 5 5 4 7 9 7 4 5 4 5 5 5 3
0 2 1 4 1 1 1 1 0 0 2 2 3 6 4 4 5 3 5 1 2 1 3 1 1 4 3 1 3 2 1 2 2 1 0 1 2 1 0 0 1 2 1 2 1 3 4 5 6 8 8 8 8 6 6 5 4 5 11 9 5 5 8 11 9 9 9 8 5 7 7 5 7 7 6 5 5 5 5 5 5 6 5 5 6 6 4
1 1 1 1 3 1 0 2 3 3 3 4 5 6 4 3 7 2 1 1 1 1 2 0 0 1 5 0 1 1 3 2 2 1 1 1 1 0 1 1 1 0 2 1 2 3 4 7 6 5 5 6 7 7 7 6 5 5 8 9 7 6 6 9 9 9 6 6 7 7 6 5 5 4 5 4 2 3 3 4 4 3 5 7 5 4 4
1 0 1 1 3 2 4 4 2 0 1 1 0 3 3 0 0 1 3 3 2 2 3 3 3 2 4 2 4 3 0 0 2 1 1 1 0 2 1 1 0 1 1 3 4 5 4 4 6 7 7 8 10 10 8 8 6 6 9 10 9 9 8 9 8 7 8 9 8 7 6 5 6 6 6 6 5 4 2 3 3 3 3 4 5 4 6
1 1 1 1 1 2 1 2 3 3 1 1 1 0 2 2 2 6 3 1 2 2 2 1 1 3 1 1 2 1 1 2 3 1 0 1 1 2 1 1 0 0 4 6 3 4 6 5 3 5 7 8 8 10 9 9 10 9 10 12 11 10 9 9 9 9 7 7 7 7 6 5 5 5 4 5 5 4 3 4 3 3 4 5 6 5 5
1 0 1 1 1 1 1 0 2 1 3 3 0 1 1 2 3 7 3 3 1 3 1 2 2 3 1 1 1 2 0 0 2 0 2 0 1 1 1 0 3 3 1 3 5 6 6 3 4 7 7 8 8 10 10 7 8 9 7 8 9 9 9 11 9 8 8 8 8 8 7 6 5 6 6 6 5 5 4 4 3 4 4 4 6 5 5
1 0 2 2 1 2 4 4 6 3 1 2 1 2 5 5 5 2 2 4 4 4 3 2 2 2 1 2 1 1 1 1 3 1 2 2 1 2 2 2 3 7 7 6 7 5 3 5 7 7 7 7 8 9 10 11 10 9 9 9 8 7 7 8 10 9 7 6 6 7 7 6 7 5 4 5 6 6 4 2 0 2 5 4 4 6 6
1 0 1 1 0 2 2 1 1 2 2 2 3 3 4 2 2 2 1 5 5 4 4 1 2 2 2 2 2 1 1 3 1 0 1 2 3 2 3 5 3 6 8 5 5 5 5 5 6 9 10 10 10 9 9 9 9 8 8 9 9 9 8 8 8 7 7 6 6 6 6 4 4 4 5 6 6 5 6 3 1 3 4 5 4 3 4
Wind_Direction
322 325 326 326 327 329 333 334 334 337 343 11 357 33 7 58 176 272 323 318 81 65 62 296 37 344 242 291 279 236 294 189 275 23 358 31 38 41 53 198 95 224 208 162 275 202 332 181 119 238 260 261 219 246 338 315 345 126 310 11 293 111 46 27 295 307 291 326 354 62 58 91 97 21 84 102 206 182 168 177 180 119 327 39 4 59 257
325 327 326 327 328 329 332 333 333 335 360 45 312 62 133 163 234 325 313 34 87 80 86 347 317 289 310 5 268 254 232 22 356 15 338 72 356 104 34 352 154 160 119 112 328 213 32 248 10 342 223 299 249 295 335 345 325 87 304 63 261 38 315 105 9 360 337 341 350 5 340 49 81 278 285 215 97 79 123 112 71 84 229 175 108 197 270
323 326 327 326 326 327 331 331 331 335 340 171 99 73 179 124 277 230 301 351 57 91 178 137 219 285 305 332 338 346 345 225 239 184 350 6 134 95 358 219 232 25 306 64 192 309 120 286 293 135 224 255 315 308 353 345 280 243 224 280 337 75 187 81 2 261 13 321 330 328 334 286 284 252 325 353 138 135 117 116 25 102 253 91 127 215 262
322 324 326 327 327 330 330 332 332 336 339 295 131 187 48 28 159 305 345 6 34 81 70 105 135 341 329 0 278 155 323 334 326 91 350 99 25 115 172 343 87 43 36 16 5 341 351 87 280 27 311 299 312 273 329 9 320 354 40 31 85 125 95 106 151 149 182 207 219 243 255 340 21 312 353 327 67 88 100 104 90 170 170 111 232 171 148
324 324 326 328 331 332 332 334 337 338 341 203 141 33 111 164 109 182 322 342 40 86 18 73 57 81 172 155 274 324 233 272 327 35 103 6 91 34 58 305 45 293 64 298 342 231 306 341 135 248 253 257 257 304 273 304 348 355 3 6 91 66 26 346 129 158 202 198 227 269 291 315 316 338 327 340 26 42 95 127 237 165 106 349 256 174 143
323 325 326 330 332 334 334 338 342 345 352 138 187 11 8 63 269 101 200 131 239 70 312 100 62 315 131 243 277 235 340 4 149 336 41 7 19 127 335 33 32 217 201 132 78 330 346 8 335 326 252 333 324 347 333 23 329 355 0 354 91 133 120 289 97 281 189 217 239 331 49 48 20 322 340 345 321 300 102 213 167 119 108 204 176 168 148
323 325 326 330 335 336 338 343 343 347 337 129 252 135 280 128 181 160 312 112 250 168 197 338 129 258 198 268 300 291 115 283 223 167 319 22 339 80 132 300 309 307 221 119 184 165 45 320 298 193 302 24 335 354 335 336 11 19 356 16 141 91 277 287 105 320 350 9 13 29 60 8 20 1 11 5 20 3 102 87 36 71 279 161 141 148 121
323 325 328 334 338 341 343 346 347 348 345 294 50 63 160 239 118 247 6 77 128 280 30 85 64 348 230 181 268 179 179 205 323 315 126 340 303 45 92 266 307 298 168 146 71 222 177 194 268 253 157 318 137 264 201 272 325 28 343 351 331 61 291 201 332 47 318 341 1 34 33 48 46 349 16 19 23 42 37 70 75 73 55 88 114 119 113
320 325 330 339 341 345 348 350 351 349 16 13 134 315 100 235 162 151 125 107 280 101 45 84 128 101 313 120 266 137 224 235 209 251 165 160 228 300 263 250 335 43 100 137 241 232 197 197 215 215 158 265 224 135 288 156 320 349 347 22 318 50 284 63 60 49 316 341 13 335 11 74 96 13 5 1 4 47 333 53 263 119 145 120 107 121 168
313 321 337 343 345 350 351 355 356 353 339 157 120 117 285 67 306 88 100 110 309 120 81 45 78 221 218 169 242 156 244 216 144 53 298 245 235 198 222 256 93 309 155 247 244 250 199 226 231 226 220 232 244 213 232 113 215 313 306 266 341 81 113 356 26 62 264 279 8 1 11 34 4 321 311 307 295 209 183 238 283 192 158 142 166 200 161
311 325 342 344 349 353 356 360 4 7 14 118 115 212 195 151 150 37 37 101 323 103 89 336 133 213 106 288 291 174 269 341 161 133 264 18 4 340 155 163 135 241 210 240 234 226 232 226 250 67 101 332 247 254 259 39 198 187 194 1 37 85 81 71 154 43 253 304 333 359 53 23 250 236 241 224 255 210 142 191 167 94 87 184 185 149 134
301 336 340 347 349 355 359 2 7 14 34 296 245 147 210 133 73 91 87 108 230 300 135 211 190 306 31 307 224 242 48 26 321 167 210 267 277 305 86 68 96 347 246 238 326 296 241 80 40 46 57 22 61 60 75 90 32 32 132 200 240 80 72 75 146 92 283 320 9 39 342 240 247 303 299 210 254 291 114 74 16 16 46 82 90 118 141
290 324 339 346 349 359 360 1 5 9 13 18 163 127 253 254 126 134 135 116 187 198 110 264 284 263 254 312 12 233 282 290 321 339 211 134 324 4 21 117 208 239 314 322 1 41 46 296 325 299 313 347 358 45 47 33 4 348 47 88 126 139 109 170 37 64 14 55 51 98 244 241 285 292 298 297 196 189 80 45 26 161 189 147 137 151 139
253 303 341 343 349 358 1 360 2 5 6 12 64 127 327 68 100 77 110 101 298 233 224 315 343 357 3 304 227 300 340 17 332 102 85 275 51 320 299 190 260 282 310 101 54 49 353 44 13 15 332 5 3 34 334 338 45 29 8 8 10 138 101 90 82 24 196 132 169 226 302 344 356 355 342 52 169 303 115 220 263 218 187 161 144 139 126
204 306 336 345 347 357 2 359 0 3 5 13 138 36 127 199 133 130 182 88 178 306 228 141 260 268 268 292 28 55 34 310 49 14 275 287 209 236 221 277 320 350 76 101 27 45 113 110 24 23 331 37 75 255 325 37 308 64 47 33 53 54 266 235 122 290 114 126 14 349 22 339 278 243 286 261 237 257 232 87 303 230 207 174 142 147 140
198 245 334 342 345 358 4 2 0 2 5 10 81 30 245 194 168 96 115 138 123 95 248 211 177 155 207 231 206 96 145 39 342 329 350 335 281 325 303 298 318 38 57 65 83 89 40 70 214 94 28 235 230 33 321 346 350 309 35 28 59 33 69 91 117 156 51 48 117 209 155 247 218 259 265 264 262 252 342 49 303 264 162 161 155 147 153
187 228 333 336 351 358 6 4 358 1 4 12 30 345 67 157 124 119 89 40 80 201 253 145 120 104 82 342 29 35 115 91 176 49 344 334 300 277 293 334 327 44 56 77 11 59 35 52 109 149 279 236 52 234 326 48 356 327 332 9 28 28 3 18 39 60 87 133 105 242 201 212 2 283 290 303 9 212 79 34 285 284 301 159 156 155 155
183 189 328 338 348 360 7 4 3 0 3 5 110 143 210 324 114 64 58 110 105 295 272 195 97 74 87 181 136 268 77 36 32 25 101 279 323 341 320 2 352 331 77 86 17 68 70 87 62 103 84 259 185 69 22 205 32 295 338 9 353 355 341 41 165 162 112 113 266 311 312 296 319 310 312 323 323 56 92 188 243 310 307 208 137 128 133
170 179 256 334 345 3 8 7 7 5 6 10 82 38 342 326 45 97 119 70 82 179 266 282 315 178 219 92 101 184 76 107 137 96 324 13 4 285 192 225 84 342 6 127 70 82 113 285 21 124 135 310 25 139 253 45 276 273 39 31 7 10 86 295 89 54 146 181 151 233 245 243 272 294 281 278 24 101 206 237 261 267 299 77 121 132 145
180 185 217 321 348 6 10 12 9 8 7 6 32 157 227 315 326 252 147 151 122 237 275 241 158 224 261 100 36 30 355 19 50 116 143 54 285 27 30 8 321 74 347 61 55 218 87 226 196 78 37 234 278 188 49 290 187 92 108 225 119 209 74 283 349 222 64 48 64 4 302 187 4 339 339 32 110 224 223 278 325 31 57 98 63 56 48
175 188 247 313 349 5 12 13 12 10 8 3 17 109 99 339 21 20 53 136 124 49 313 265 287 258 201 203 196 158 151 136 155 64 222 203 233 87 86 210 251 64 267 120 103 335 156 345 262 191 222 140 275 42 188 289 346 301 76 195 114 196 65 297 284 188 138 64 174 191 215 265 347 5 220 259 193 255 258 192 12 50 111 112 106 97 115
180 184 208 274 345 10 11 14 13 14 11 7 9 86 94 294 6 342 320 99 113 176 209 229 269 256 242 242 229 205 202 197 202 166 134 353 335 21 170 137 184 161 198 124 42 23 11 149 70 45 209 308 18 82 135 68 260 273 311 114 21 304 13 174 22 238 130 214 210 260 300 307 320 265 266 268 269 258 242 152 147 132 95 106 104 123 120
178 191 211 274 356 5 13 13 14 16 11 16 30 85 149 332 326 341 16 75 309 318 331 350 316 271 270 248 240 218 227 232 156 123 131 118 354 293 159 141 293 203 65 102 183 156 195 136 219 153 82 152 151 125 10 117 184 327 81 311 134 20 337 160 188 278 232 152 84 294 354 351 350 28 351 317 310 333 116 108 98 41 101 112 116 115 110
187 198 223 209 337 3 11 7 13 11 12 21 57 70 338 207 270 350 28 68 106 331 329 353 45 296 177 131 304 83 144 225 213 200 164 125 112 306 322 256 157 60 36 254 176 130 183 102 218 144 137 235 84 71 139 341 263 185 71 345 339 278 342 14 257 296 31 292 1 29 23 0 4 352 354 21 32 46 50 77 72 70 66 96 107 124 121
187 205 216 244 332 359 360 3 1 4 7 6 20 59 172 348 30 62 147 228 325 101 174 308 275 223 257 268 323 249 222 194 163 148 145 142 137 153 334 66 167 164 164 182 46 60 38 118 22 41 127 259 110 236 291 108 298 178 69 264 332 343 22 342 296 2 89 279 55 66 48 58 32 14 16 14 43 66 70 70 81 90 81 74 73 70 79
196 206 217 228 295 340 349 355 353 356 352 351 354 50 95 229 35 19 34 59 104 111 117 250 271 324 321 16 100 229 254 173 156 143 151 174 170 165 157 153 40 33 93 68 65 94 114 57 91 115 104 299 73 142 217 208 131 181 136 190 195 284 350 223 263 104 343 103 162 41 343 41 21 9 13 20 45 86 81 86 86 83 84 84 69 82 108
196 206 216 223 278 324 339 346 350 345 340 337 337 217 206 268 224 184 164 168 112 358 52 229 272 299 5 325 281 335 6 73 105 103 86 76 92 96 94 92 95 40 61 49 35 113 66 95 93 38 72 256 135 151 165 84 98 78 12 348 29 354 193 149 38 47 26 340 322 317 47 19 347 354 355 10 17 83 93 91 92 104 111 104 100 82 78
197 207 211 231 252 293 332 342 340 338 336 340 347 334 161 215 241 205 267 289 92 181 175 257 311 282 307 301 287 309 343 114 116 98 87 75 76 77 82 88 87 72 25 68 27 22 35 63 55 229 306 301 55 4 30 92 56 28 337 295 304 252 310 95 146 158 115 357 359 48 78 89 34 341 351 13 358 85 83 89 96 88 90 111 115 112 107
196 205 218 226 236 296 330 338 334 336 342 350 40 54 25 240 242 227 214 210 95 103 101 247 290 339 138 210 343 23 25 66 100 98 92 77 69 70 74 69 85 125 92 75 99 108 99 127 221 117 88 222 107 302 38 18 42 12 309 342 27 335 305 98 113 103 74 61 61 59 76 72 23 21 26 13 354 79 85 80 89 105 117 119 119 126 125
193 207 215 226 253 285 313 325 330 338 350 5 47 56 44 339 245 192 196 166 131 114 92 70 102 189 324 11 358 346 49 61 82 86 88 89 74 67 73 88 63 62 99 124 137 84 212 151 292 270 271 181 121 169 74 181 52 353 14 39 37 44 57 59 16 89 116 106 92 88 89 82 64 48 43 24 17 39 75 77 101 103 93 110 110 104 121
197 203 214 236 259 279 302 313 324 345 359 356 68 67 61 55 243 225 72 63 131 123 137 128 177 287 26 323 42 38 83 94 88 88 80 84 87 84 52 84 70 105 63 11 50 164 149 25 14 339 322 84 114 85 135 108 46 47 10 12 29 45 67 77 80 98 109 104 91 83 77 61 57 58 46 29 20 29 75 63 60 94 110 94 99 117 115
194 203 222 243 259 284 297 305 318 335 334 359 152 164 171 165 149 203 228 53 210 110 70 47 13 21 298 327 356 288 90 77 90 61 23 38 36 21 37 62 96 16 118 111 170 75 46 229 97 309 37 334 87 73 51 70 78 73 6 16 20 32 38 75 83 80 73 84 92 84 73 75 70 92 61 2 28 40 76 72 75 85 90 91 79 70 72
195 201 221 236 268 284 295 300 306 310 256 266 273 278 269 257 250 241 242 348 54 92 122 79 122 199 81 279 339 18 55 41 33 38 54 352 113 45 42 12 17 45 46 83 5 86 209 128 250 51 339 3 71 70 66 75 112 201 286 345 359 26 52 60 78 113 134 159 359 111 124 143 137 98 83 33 32 34 96 106 110 104 93 88 78 72 64
199 191 208 247 271 290 299 306 307 299 297 316 43 37 326 226 215 202 126 90 103 88 66 109 94 86 171 307 101 273 50 118 173 45 98 358 114 71 302 29 354 76 350 79 260 69 335 64 42 292 335 22 23 73 49 81 271 281 310 324 352 19 59 90 87 101 53 30 39 68 116 122 110 99 93 100 87 62 60 85 99 86 76 74 63 56 52
188 192 220 257 282 294 306 322 332 49 153 259 260 263 326 232 139 144 145 132 65 346 18 19 109 98 74 4 89 243 269 98 141 328 125 269 13 147 218 67 328 73 319 80 41 76 32 326 183 61 327 308 46 44 315 200 266 325 298 319 342 38 40 51 47 25 28 37 63 53 56 89 99 96 109 102 89 86 83 56 69 101 88 69 65 47 58
182 210 261 283 298 303 310 175 111 42 33 4 328 311 62 116 123 132 172 147 126 156 90 250 66 137 138 124 137 228 41 53 348 21 65 128 33 24 94 107 62 358 239 80 137 344 64 311 66 35 296 62 56 174 200 190 152 211 221 227 227 142 151 157 235 24 54 58 76 78 71 64 83 89 81 72 66 66 88 86 65 76 90 79 60 59 61
197 270 302 306 323 87 16 227 287 208 184 257 117 105 102 89 57 58 7 28 343 96 129 167 69 212 150 179 269 276 87 152 336 45 349 78 177 296 46 49 117 283 41 6 18 42 327 11 98 55 22 89 52 204 199 181 183 199 221 223 220 183 158 183 142 98 57 43 42 38 66 82 54 53 79 55 45 45 62 55 69 101 100 102 91 74 80
258 350 59 64 59 46 27 330 337 266 255 113 111 72 355 29 97 338 355 29 277 52 349 66 97 236 311 91 131 236 78 260 35 128 302 244 101 101 348 99 212 97 79 277 262 184 46 37 44 101 302 248 252 252 220 201 219 212 214 216 242 200 158 146 139 108 98 68 42 54 55 56 59 32 94 63 57 66 71 99 92 95 104 103 99 110 98
71 88 54 52 97 181 179 199 319 332 122 135 45 77 312 1 59 24 318 277 14 31 305 83 238 173 112 57 291 296 141 153 65 40 117 271 120 267 23 101 296 72 2 36 292 56 39 358 358 33 89 317 16 123 248 242 232 214 210 211 182 166 152 169 159 147 158 180 189 191 169 166 145 121 113 102 83 70 80 91 94 95 100 103 103 96 93
51 61 120 70 102 225 261 299 337 8 68 66 336 102 120 314 99 228 317 58 351 295 18 290 208 165 188 154 163 194 310 74 126 188 150 44 13 141 235 93 271 92 120 112 244 20 115 120 292 69 279 287 254 271 346 206 176 269 261 244 162 142 154 144 131 70 116 94 93 92 79 100 123 129 132 120 113 104 91 81 92 106 100 100 99 92 95
30 83 42 122 242 285 292 300 343 51 71 48 8 9 73 17 345 190 79 53 144 232 209 159 45 86 357 83 104 138 286 89 118 126 111 105 236 87 65 101 221 81 7 262 273 70 75 85 17 146 219 236 223 263 9 81 108 43 41 97 106 114 116 102 102 126 123 103 91 79 81 102 111 115 118 118 115 117 118 121 113 109 101 97 96 101 116
186 153 184 115 345 319 341 16 60 74 17 78 121 300 283 225 312 6 121 141 229 233 287 148 247 177 231 176 197 144 57 231 117 98 100 105 263 119 156 200 3 104 196 233 137 62 76 114 310 277 256 244 248 254 144 127 59 87 66 75 105 119 106 102 98 60 90 116 108 99 96 101 105 110 120 117 118 123 125 114 106 100 104 105 103 100 102
279 112 108 61 34 2 92 105 304 112 137 28 49 34 348 93 197 164 255 278 297 120 262 10 265 175 273 75 26 289 179 242 218 359 69 114 325 54 89 25 62 77 196 348 66 61 63 174 210 244 231 212 215 209 143 126 119 93 73 69 87 94 106 107 101 96 73 97 109 112 114 106 104 109 117 112 107 91 78 108 129 126 114 110 112 112 108
118 88 37 350 85 273 108 161 262 53 359 37 112 172 219 38 297 56 31 265 234 245 239 142 218 124 173 293 143 272 11 13 50 84 56 322 81 33 65 128 158 263 8 43 44 118 214 219 207 220 220 207 217 155 130 124 121 102 82 72 88 105 102 103 103 101 91 83 91 103 107 107 109 94 93 108 119 124 125 102 80 102 114 111 110 110 111
91 6 40 32 41 272 78 258 334 120 182 230 146 176 155 172 230 172 175 246 94 219 43 89 127 90 130 262 48 27 101 168 308 97 210 76 55 12 100 159 213 31 103 195 349 340 345 285 269 255 233 183 189 173 151 148 149 132 127 106 105 118 117 113 114 114 116 118 124 118 113 115 107 110 109 115 129 139 139 152 159 127 129 124 126 123 139
102 160 109 97 47 305 113 169 48 289 282 144 192 191 163 228 162 213 251 179 97 70 95 160 75 92 77 282 129 182 353 82 56 14 155 64 103 91 242 290 70 76 23 46 94 195 215 232 219 208 192 176 161 164 149 150 137 135 122 128 147 131 125 124 128 126 131 128 124 117 127 128 132 128 134 147 146 151 155 147 151 150 146 130 148 155 157
86 14 89 123 116 269 51 155 218 202 175 195 210 178 185 190 202 188 223 168 166 207 103 188 83 166 135 159 42 13 34 42 92 290 71 60 126 225 12 122 203 151 137 214 233 249 264 255 237 217 176 153 145 148 146 149 158 158 132 128 131 131 130 126 129 130 135 126 124 123 127 132 127 124 121 120 171 205 179 139 147 184 163 156 165 135 132
116 235 105 129 199 161 165 234 199 254 239 140 212 189 229 231 35 302 257 204 202 117 120 88 88 36 47 325 76 135 245 7 90 325 106 152 29 40 14 39 349 254 193 161 223 221 229 245 217 189 180 165 151 146 150 151 155 148 141 137 138 138 140 134 131 137 140 139 140 138 138 135 140 146 155 164 172 193 135 132 167 145 113 108 118 128 138
138 120 150 203 190 145 200 252 124 135 244 328 310 92 130 116 203 246 240 121 134 199 194 119 201 97 103 301 91 82 48 335 102 226 6 35 91 191 150 211 93 326 258 180 212 211 219 235 221 157 148 151 158 149 156 158 154 156 153 150 155 153 148 145 146 150 148 142 144 144 153 162 149 137 130 131 152 159 155 172 152 131 140 145 143 141 140
76 347 36 75 50 336 276 81 90 238 307 331 26 187 206 169 241 266 185 143 201 106 74 46 48 90 189 95 37 17 65 300 130 67 66 78 186 165 74 332 227 187 252 238 230 244 238 225 155 142 158 153 156 149 148 156 157 157 156 146 142 146 151 148 148 153 155 158 158 157 154 145 143 141 151 161 163 148 140 150 166 141 145 159 147 145 150
345 124 231 176 135 209 144 149 171 204 287 265 230 225 174 197 208 225 220 133 114 71 50 159 191 104 130 41 71 91 212 189 77 113 157 187 187 118 178 202 237 212 230 232 217 227 221 189 161 150 153 158 160 159 153 153 158 157 154 151 149 142 143 148 150 155 161 161 149 134 143 168 178 166 148 121 123 120 109 68 41 151 152 154 155 147 150
80 102 235 301 61 149 148 113 109 168 180 189 178 241 148 235 247 237 222 110 108 130 198 205 96 76 76 148 209 163 92 48 56 76 45 271 156 146 211 194 224 219 217 235 252 232 207 202 187 167 163 161 161 157 150 148 146 147 149 150 148 148 150 155 157 158 155 154 163 162 171 154 128 119 117 116 113 115 131 162 208 162 151 148 157 157 146